カタログに戻る

STARLINK-34046

運用中通信VLEO
NORAD 64035·PAYLOAD·🇺🇸 United States

打ち上げ May 16, 2025 から Vandenberg Space Force Base

Loading…

次のパス (今後24時間)

TLE

最新Source: CelesTrak SupGP

元期: Sep 15, 2026, 02:48 UTC

1 64035C 25102P   26258.11715278  .00091347  00000+0  31772-2 0  2586
2 64035  70.0009 355.0074 0003407 269.0076 305.5938 15.29537244    10

AllMySatでSTARLINK-34046をリアルタイム追跡

Download on the App Store